"Time","Temp","Dewpoint","Humidity","Pressure","Direction","Speed","Gust","Precip","PrecipRate"
"00:04:56","59.9","49.3","68","29.98","274","0.2","1.2","0.00","0.00"
"00:09:59","59.3","49","68.7","29.98","274","0","0","0.00","0.00"
"00:14:58","58.8","49","69.9","29.98","274","0.2","1.2","0.00","0.00"
"00:19:56","58.5","49.3","71.6","29.98","274","0.7","2.3","0.00","0.00"
"00:23:28","58.2","49.2","72","29.98","274","0.5","2.3","0.00","0.00"
"00:29:56","57.8","48.5","71","29.99","274","0","0","0.00","0.00"
"00:34:58","57.6","48.6","72","29.99","274","0","1","0.00","0.00"
"00:39:57","57.3","48.8","73.4","29.99","274","0.4","2.3","0.00","0.00"
"00:44:56","57.1","49","74.2","29.99","274","0.4","1.2","0.00","0.00"
"00:49:58","57","48.8","73.9","29.99","274","0","0","0.00","0.00"
"00:54:59","57","48.8","74","29.99","274","0","1.2","0.00","0.00"
"00:59:57","56.9","49.1","75","29.99","274","0.7","2.3","0.00","0.00"
"01:04:59","56.8","49.2","75.8","29.99","274","0.4","2.3","0.00","0.00"
"01:09:57","56.6","49.7","77.7","29.99","274","0","0","0.00","0.00"
"01:14:56","56.3","49.7","78.4","29.99","274","0","0","0.00","0.00"
"01:19:57","56.1","49.7","79.1","29.99","274","0","0","0.00","0.00"
"01:24:59","56","49.9","80","29.99","274","0","0","0.00","0.00"
"01:29:57","55.8","49.7","80","29.99","274","0","0","0.00","0.00"
"01:34:59","55.5","49.2","79.5","29.99","298","0.6","4","0.00","0.00"
"01:39:58","55.3","48.6","78","29.99","307","1.1","4","0.00","0.00"
"01:44:59","55.4","48.1","76.4","29.99","343","0.8","4","0.00","0.00"
"01:49:58","55.6","47.5","74","29.99","340","0.5","3.5","0.00","0.00"
"01:54:56","56","46.9","71.5","29.99","329","0.5","3.5","0.00","0.00"
"01:59:59","56.2","46.6","70.2","30.00","329","0","1","0.00","0.00"
"02:04:57","56.3","46.5","69.5","30.00","329","0.5","2.3","0.00","0.00"
"02:09:59","56.4","46.7","69.9","30.00","329","0.1","2","0.00","0.00"
"02:14:58","56.5","46.4","69","30.00","347","1.3","5","0.00","0.00"
"02:19:56","56.7","46.6","68.9","30.00","352","0.6","4","0.00","0.00"
"02:24:58","56.9","45.9","66.5","30.00","293","1.3","4.6","0.00","0.00"
"02:29:56","57.3","45.8","65.4","30.00","3","1.1","5","0.00","0.00"
"02:34:58","57.7","45.4","63.6","30.00","355","0.2","2","0.00","0.00"
"02:39:57","57.9","45.2","62.5","30.00","355","0.4","2.3","0.00","0.00"
"02:44:59","58.1","44.8","61.3","30.01","351","0.4","3.5","0.00","0.00"
"02:49:57","58.1","45","61.8","30.01","351","0","1.2","0.00","0.00"
"02:54:59","57.8","46.2","65.3","30.01","351","0.1","1.2","0.00","0.00"
"02:59:57","57.4","46.1","66","30.01","351","0","1","0.00","0.00"
"03:04:47","56.9","45.1","64.7","30.01","351","0.2","1.2","0.00","0.00"
"03:09:58","56.5","45.2","65.7","30.01","351","0.2","1.2","0.00","0.00"
"03:14:56","56.2","45","66.1","30.02","326","0.6","4","0.00","0.00"
"03:19:58","56","44.8","66.2","30.02","326","0.4","3.5","0.00","0.00"
"03:24:56","55.9","44.9","66.5","30.02","321","1","3.5","0.00","0.00"
"03:29:59","55.9","44.5","65.4","30.02","318","1","4","0.00","0.00"
"03:34:57","56.2","44.4","64.4","30.02","336","2.3","6","0.00","0.00"
"03:39:56","56.6","44.8","64.5","30.02","350","1","5.8","0.00","0.00"
"03:44:58","56.9","44.4","63","30.02","314","1.8","5","0.00","0.00"
"03:49:56","57.3","44.4","62","30.02","352","1.7","5","0.00","0.00"
"03:54:57","57.5","44.3","61.3","30.02","328","0.4","2.3","0.00","0.00"
"03:59:59","57.6","44.2","61","30.02","328","0.3","3","0.00","0.00"
"04:04:57","57.5","44.4","61.6","30.02","329","0.2","3.5","0.00","0.00"
"04:09:59","57.3","44.4","62","30.02","329","0","0","0.00","0.00"
"04:14:58","57.1","44.5","62.9","30.02","329","0.1","3","0.00","0.00"
"04:19:56","56.7","44.2","63","30.02","328","0.3","3.5","0.00","0.00"
"04:24:58","56.2","44.5","64.7","30.02","328","0.7","4","0.00","0.00"
"04:29:56","55.8","44.5","65.8","30.03","323","0.9","4","0.00","0.00"
"04:34:58","55.4","44.3","66.2","30.03","332","0.9","3.5","0.00","0.00"
"04:39:57","55.1","44.3","67","30.03","338","1.6","4","0.00","0.00"
"04:44:59","54.9","44.1","67","30.03","322","1.7","9","0.00","0.00"
"04:49:56","55","43.9","66.3","30.03","326","2.2","9.2","0.00","0.00"
"04:54:58","55","44","66.5","30.03","332","1.7","9.2","0.00","0.00"
"04:59:56","55.1","43.7","65.7","30.03","321","1.8","5","0.00","0.00"
"05:04:58","55.1","43.6","65","30.03","323","1.7","10.4","0.00","0.00"
"05:09:56","55.1","43.5","65","30.03","334","1.7","5","0.00","0.00"
"05:14:59","55","43.4","65","30.04","344","1.2","6","0.00","0.00"
"05:19:57","54.9","43.4","65","30.04","351","1.5","5.8","0.00","0.00"
"05:24:59","54.8","43.4","65.1","30.04","346","1.3","5","0.00","0.00"
"05:29:57","54.8","43.5","65.5","30.04","354","0.8","4","0.00","0.00"
"05:34:56","54.6","43.2","65.1","30.03","5","1.1","3.5","0.00","0.00"
"05:39:59","54.4","43","65.2","30.03","5","0.6","3.5","0.00","0.00"
"05:44:57","54.2","43","65.6","30.04","5","0.4","2.3","0.00","0.00"
"05:49:56","54","42.9","66.1","30.04","8","0.6","3.5","0.00","0.00"
"05:54:58","53.7","43.1","67.2","30.04","11","0.7","3.5","0.00","0.00"
"05:59:56","53.4","43.1","68","30.04","11","0.3","2.3","0.00","0.00"
"06:04:58","53.1","43.2","69.2","30.04","11","0.2","2.3","0.00","0.00"
"06:09:57","52.8","42.9","69.1","30.04","11","0.3","2.3","0.00","0.00"
"06:14:56","52.5","42.7","69.2","30.05","11","0.2","2.3","0.00","0.00"
"06:19:59","52.4","42.9","70","30.05","10","0.2","3","0.00","0.00"
"06:24:57","52.4","42.8","69.8","30.05","5","0.3","3","0.00","0.00"
"06:29:56","52.4","43","70.2","30.06","5","0","1.2","0.00","0.00"
"06:34:57","52.4","43.2","70.8","30.06","5","0","0","0.00","0.00"
"06:39:56","52.3","43.2","71","30.06","5","0","0","0.00","0.00"
"06:44:59","52.2","43.2","71.2","30.06","5","0","0","0.00","0.00"
"06:49:56","52.1","43","71","30.06","5","0","0","0.00","0.00"
"06:54:58","52.1","43.3","71.9","30.06","5","0","0","0.00","0.00"
"06:59:56","52.1","43.5","72.5","30.07","5","0","1.2","0.00","0.00"
"07:04:57","52.3","44.3","73.9","30.07","5","0","0","0.00","0.00"
"07:09:59","52.7","44.9","74.6","30.07","5","0","0","0.00","0.00"
"07:14:58","53.3","44.9","73.3","30.08","5","0.3","2.3","0.00","0.00"
"07:19:56","53.8","45.4","73","30.08","5","0","0","0.00","0.00"
"07:24:58","54.5","45.6","71.7","30.08","5","0.3","1.2","0.00","0.00"
"07:29:59","55.1","45.3","69.6","30.08","9","0.6","2.3","0.00","0.00"
"07:34:57","55.7","45.7","68.9","30.08","6","1.5","3.5","0.00","0.00"
"07:39:59","56.3","45.3","66.6","30.08","337","2.3","6","0.00","0.00"
"07:44:57","56.9","45.5","65.7","30.09","349","1.4","4","0.00","0.00"
"07:49:58","57.4","45.5","64.6","30.09","339","1.7","4","0.00","0.00"
"07:54:56","57.9","45.5","63.3","30.09","332","2.3","5","0.00","0.00"
"07:59:58","58.3","45.7","62.8","30.09","334","1.6","9.2","0.00","0.00"
"08:04:56","58.8","45.7","61.8","30.09","327","2.6","6","0.00","0.00"
"08:09:57","59.1","45.2","59.8","30.09","339","4.1","9.2","0.00","0.00"
"08:14:56","59.4","45.5","59.9","30.10","329","1.9","6","0.00","0.00"
"08:19:58","59.6","45.7","59.9","30.10","311","1.3","4.6","0.00","0.00"
"08:24:59","59.9","45.8","59.5","30.10","331","1.9","5","0.00","0.00"
"08:29:57","60.2","46.3","60.1","30.10","319","1.2","5","0.00","0.00"
"08:34:59","60.2","45.7","58.7","30.10","313","1.5","3.5","0.00","0.00"
"08:39:57","60.2","45.7","58.7","30.10","342","1.9","5","0.00","0.00"
"08:44:59","60.3","45.6","58.4","30.10","344","1.3","4","0.00","0.00"
"08:49:57","60.4","45.5","58","30.10","337","2","4","0.00","0.00"
"08:54:58","60.4","46.3","59.5","30.10","333","0.6","3","0.00","0.00"
"08:59:56","60.9","46.2","58.5","30.10","321","1.1","4","0.00","0.00"
"09:04:57","61.2","45.7","56.7","30.10","263","1.4","3.5","0.00","0.00"
"09:09:59","61.5","47","59","30.10","277","1.9","6","0.00","0.00"
"09:14:58","61.7","46.1","56.5","30.10","6","0.6","4.6","0.00","0.00"
"09:19:56","62","46.4","56.6","30.09","360","0.4","2","0.00","0.00"
"09:24:57","62.4","46.2","55.6","30.09","347","0.8","3.5","0.00","0.00"
"09:29:59","62.7","46.8","56.1","30.10","212","1.4","4","0.00","0.00"
"09:34:56","62.9","47","56","30.10","149","0.7","3.5","0.00","0.00"
"09:39:58","63","46.8","55.5","30.10","119","1","3.5","0.00","0.00"
"09:44:56","63.3","46.8","54.8","30.10","50","0.7","3.5","0.00","0.00"
"09:49:58","63.5","46.9","54.8","30.10","47","0.6","3","0.00","0.00"
"09:54:59","63.8","46.3","53.1","30.10","284","1.7","6","0.00","0.00"
"09:59:57","64.1","47","53.7","30.10","233","2.5","5.8","0.00","0.00"
"10:04:58","64.4","46.4","52.1","30.10","301","2.1","5","0.00","0.00"
